Location: Shepherdstown, WV
(39.4326°N, 77.8042°W)
Time: 05:42:41
(UTC-04:00)

Vanguard 3 - Pass Details

Date: 11 August 2021
Orbit: 510 x 3260 km, 33.3° (Epoch: 21 September)

Event Time Altitude Azimuth Distance (km) Brightness Sun altitude
Rises 23:19:25 0° 277° (W) 6,419 12.3 -29.2°
Reaches altitude 10° 23:24:44 10° 265° (W) 5,739 11.7 -29.7°
Maximum altitude 23:37:22 23° 221° (SW) 5,098 10.9 -31.0°
Enters shadow 23:43:03 20° 200° (SSW) 5,322 10.9 -31.5°
Drops below altitude 10° 23:50:46 10° 178° (S) 6,036 - -32.1°
Sets 23:56:44 0° 165° (SSE) 6,805 - -32.6°
